Terug naar catalogus

GAOFEN 12

ActiefWetenschapSSO
NORAD 44819·PAYLOAD·🇨🇳 China

Gelanceerd Nov 27, 2019 vanaf Taiyuan Satellite Launch Center

Loading…

Volgende Passages (komende 24 uur)

TLE

VersSource: Space-Track

Epoch: Sep 14, 2026, 15:09 UTC

1 44819U 19082A   26257.63179674  .00000261  00000-0  40697-4 0  9990
2 44819  97.8148 261.6718 0002460  95.4230 264.7263 14.80518209367320

Volg GAOFEN 12 in realtime met AllMySat

Download on the App Store